Location: Hochstatterhof
(48.7256°N, 10.3487°E)
Time: 21:39:50
(UTC+00:00)

YAOGAN 11 - Pass Details

Date: 26 September 2023
Orbit: 609 x 660 km, 98.4° (Epoch: 09 December)

Event Time Altitude Azimuth Distance (km) Brightness Sun altitude
Rises 02:58:13 0° 164° (SSE) 2,980 7.5 -21.9°
Reaches altitude 10° 03:00:26 10° 165° (SSE) 2,069 6.6 -21.6°
Maximum altitude 03:04:57 88° 248° (WSW) 663 4.1 -20.9°
Drops below altitude 10° 03:09:29 10° 345° (NNW) 2,064 6.8 -20.2°
Sets 03:11:42 0° 346° (NNW) 2,972 7.7 -19.9°
